Time,TemperatureF,DewpointF,PressureIn,WindDirection,WindDirectionDegrees,WindSpeedMPH,WindSpeedGustMPH,Humidity,HourlyPrecipIn,Conditions,Clouds,dailyrainin,SoftwareType,DateUTC
2013-02-19 00:02:00,48.0,-99.9,30.25,ENE,76,4.0,5.0,-999,-99.99,,,-99.99,,2013-02-19 05:02:00,
2013-02-19 00:13:00,48.0,-99.9,30.26,ENE,58,2.0,4.0,-999,-99.99,,,-99.99,,2013-02-19 05:13:00,
2013-02-19 00:23:00,48.0,-99.9,30.26,NE,35,3.0,4.0,-999,-99.99,,,-99.99,,2013-02-19 05:23:00,
2013-02-19 00:33:00,48.0,-99.9,30.24,NE,48,3.0,5.0,-999,-99.99,,,-99.99,,2013-02-19 05:33:00,
2013-02-19 00:43:00,48.0,-99.9,30.25,NE,35,3.0,4.0,-999,-99.99,,,-99.99,,2013-02-19 05:43:00,
2013-02-19 00:53:00,48.0,-99.9,30.25,NE,34,4.0,4.0,-999,-99.99,,,-99.99,,2013-02-19 05:53:00,
2013-02-19 01:03:00,48.0,-99.9,30.24,ENE,64,4.0,5.0,-999,-99.99,,,-99.99,,2013-02-19 06:03:00,
2013-02-19 01:12:00,47.0,-99.9,30.24,NE,54,5.0,6.0,-999,-99.99,,,-99.99,,2013-02-19 06:12:00,
2013-02-19 01:22:00,47.0,-99.9,30.24,NNE,27,2.0,5.0,-999,-99.99,,,-99.99,,2013-02-19 06:22:00,
2013-02-19 01:33:00,47.0,-99.9,30.24,NNE,14,4.0,5.0,-999,-99.99,,,-99.99,,2013-02-19 06:33:00,
2013-02-19 01:42:00,48.0,-99.9,30.23,NE,44,5.0,5.0,-999,-99.99,,,-99.99,,2013-02-19 06:42:00,
2013-02-19 01:53:00,48.0,-99.9,30.23,NE,41,3.0,6.0,-999,-99.99,,,-99.99,,2013-02-19 06:53:00,
2013-02-19 02:02:00,47.0,-99.9,30.23,North,353,3.0,4.0,-999,-99.99,,,-99.99,,2013-02-19 07:02:00,
2013-02-19 02:12:00,47.0,-99.9,30.23,NNW,332,2.0,5.0,-999,-99.99,,,-99.99,,2013-02-19 07:12:00,
2013-02-19 02:22:00,47.0,-99.9,30.23,WNW,302,3.0,4.0,-999,-99.99,,,-99.99,,2013-02-19 07:22:00,
2013-02-19 02:33:00,47.0,-99.9,30.22,NW,321,2.0,4.0,-999,-99.99,,,-99.99,,2013-02-19 07:33:00,
2013-02-19 02:42:00,47.0,-99.9,30.22,NNE,18,3.0,4.0,-999,-99.99,,,-99.99,,2013-02-19 07:42:00,
2013-02-19 02:52:00,47.0,-99.9,30.21,NNE,21,4.0,5.0,-999,-99.99,,,-99.99,,2013-02-19 07:52:00,
2013-02-19 03:02:00,48.0,-99.9,30.20,NE,36,4.0,6.0,-999,-99.99,,,-99.99,,2013-02-19 08:02:00,
2013-02-19 03:12:00,48.0,-99.9,30.19,NNE,26,4.0,5.0,-999,-99.99,,,-99.99,,2013-02-19 08:12:00,
2013-02-19 03:22:00,48.0,-99.9,30.19,NNE,19,4.0,5.0,-999,-99.99,,,-99.99,,2013-02-19 08:22:00,
2013-02-19 03:32:00,47.0,-99.9,30.18,NNE,32,3.0,5.0,-999,-99.99,,,-99.99,,2013-02-19 08:32:00,
2013-02-19 03:42:00,47.0,-99.9,30.17,NE,40,2.0,3.0,-999,-99.99,,,-99.99,,2013-02-19 08:42:00,
2013-02-19 03:52:00,48.0,-99.9,30.17,NNE,19,2.0,4.0,-999,-99.99,,,-99.99,,2013-02-19 08:52:00,
2013-02-19 04:02:00,48.0,-99.9,30.16,East,97,2.0,2.0,-999,-99.99,,,-99.99,,2013-02-19 09:02:00,
2013-02-19 04:11:00,49.0,-99.9,30.16,East,100,3.0,4.0,-999,-99.99,,,-99.99,,2013-02-19 09:11:00,
2013-02-19 04:22:00,49.0,-99.9,30.16,NE,50,2.0,4.0,-999,-99.99,,,-99.99,,2013-02-19 09:22:00,
2013-02-19 04:32:00,49.0,-99.9,30.15,NE,49,2.0,2.0,-999,-99.99,,,-99.99,,2013-02-19 09:32:00,
2013-02-19 04:42:00,51.0,-99.9,30.15,ESE,110,2.0,3.0,-999,-99.99,,,-99.99,,2013-02-19 09:42:00,
2013-02-19 04:53:00,50.0,-99.9,30.14,ENE,57,3.0,4.0,-999,-99.99,,,-99.99,,2013-02-19 09:53:00,
2013-02-19 05:02:00,51.0,-99.9,30.14,NE,50,4.0,6.0,-999,-99.99,,,-99.99,,2013-02-19 10:02:00,
2013-02-19 05:11:00,52.0,-99.9,30.14,ENE,63,4.0,5.0,-999,-99.99,,,-99.99,,2013-02-19 10:11:00,
2013-02-19 05:22:00,52.0,-99.9,30.14,ESE,106,3.0,4.0,-999,-99.99,,,-99.99,,2013-02-19 10:22:00,
2013-02-19 05:32:00,52.0,-99.9,30.13,SE,145,3.0,4.0,-999,-99.99,,,-99.99,,2013-02-19 10:32:00,
2013-02-19 05:42:00,51.0,-99.9,30.13,South,174,2.0,3.0,-999,-99.99,,,-99.99,,2013-02-19 10:42:00,
2013-02-19 05:52:00,52.0,-99.9,30.13,SSE,152,1.0,3.0,-999,-99.99,,,-99.99,,2013-02-19 10:52:00,
2013-02-19 06:02:00,51.0,-99.9,30.13,SE,130,2.0,2.0,-999,-99.99,,,-99.99,,2013-02-19 11:02:00,
2013-02-19 06:12:00,51.0,-99.9,30.13,ESE,123,1.0,2.0,-999,-99.99,,,-99.99,,2013-02-19 11:12:00,
2013-02-19 06:22:00,51.0,-99.9,30.13,ESE,104,2.0,2.0,-999,-99.99,,,-99.99,,2013-02-19 11:22:00,
2013-02-19 06:32:00,51.0,-99.9,30.13,ESE,115,2.0,2.0,-999,-99.99,,,-99.99,,2013-02-19 11:32:00,
2013-02-19 06:42:00,51.0,-99.9,30.12,ESE,112,3.0,4.0,-999,-99.99,,,-99.99,,2013-02-19 11:42:00,
2013-02-19 06:52:00,52.0,-99.9,30.12,ESE,109,1.0,2.0,-999,-99.99,,,-99.99,,2013-02-19 11:52:00,
2013-02-19 07:02:00,52.0,-99.9,30.12,ESE,108,3.0,4.0,-999,-99.99,,,-99.99,,2013-02-19 12:02:00,
2013-02-19 07:12:00,51.0,-99.9,30.11,ESE,109,2.0,4.0,-999,-99.99,,,-99.99,,2013-02-19 12:12:00,
2013-02-19 07:22:00,51.0,-99.9,30.11,East,90,3.0,4.0,-999,-99.99,,,-99.99,,2013-02-19 12:22:00,
2013-02-19 07:33:00,52.0,-99.9,30.11,East,96,2.0,4.0,-999,-99.99,,,-99.99,,2013-02-19 12:33:00,
2013-02-19 07:42:00,53.0,-99.9,30.11,SE,144,1.0,2.0,-999,-99.99,,,-99.99,,2013-02-19 12:42:00,
2013-02-19 07:53:00,53.0,-99.9,30.11,SSE,156,2.0,3.0,-999,-99.99,,,-99.99,,2013-02-19 12:53:00,
2013-02-19 08:02:00,53.0,-99.9,30.12,SSW,207,2.0,3.0,-999,-99.99,,,-99.99,,2013-02-19 13:02:00,
2013-02-19 08:11:00,54.0,-99.9,30.12,SSW,200,3.0,5.0,-999,-99.99,,,-99.99,,2013-02-19 13:11:00,
2013-02-19 08:22:00,55.0,-99.9,30.13,SSW,212,4.0,5.0,-999,-99.99,,,-99.99,,2013-02-19 13:22:00,
2013-02-19 08:32:00,56.0,-99.9,30.13,SSW,195,4.0,6.0,-999,-99.99,,,-99.99,,2013-02-19 13:32:00,
2013-02-19 08:42:00,56.0,-99.9,30.13,South,190,6.0,8.0,-999,-99.99,,,-99.99,,2013-02-19 13:42:00,
2013-02-19 08:52:00,56.0,-99.9,30.13,SSW,201,4.0,7.0,-999,-99.99,,,-99.99,,2013-02-19 13:52:00,
2013-02-19 09:02:00,57.0,-99.9,30.14,SSW,213,4.0,6.0,-999,-99.99,,,-99.99,,2013-02-19 14:02:00,
2013-02-19 09:12:00,58.0,-99.9,30.13,SW,219,7.0,10.0,-999,-99.99,,,-99.99,,2013-02-19 14:12:00,
2013-02-19 09:22:00,59.0,-99.9,30.13,SSW,212,8.0,11.0,-999,-99.99,,,-99.99,,2013-02-19 14:22:00,
2013-02-19 09:33:00,60.0,-99.9,30.12,SW,222,9.0,15.0,-999,-99.99,,,-99.99,,2013-02-19 14:33:00,
2013-02-19 09:42:00,61.0,-99.9,30.13,SW,228,13.0,22.0,-999,-99.99,,,-99.99,,2013-02-19 14:42:00,
2013-02-19 09:52:00,61.0,-99.9,30.12,SSW,213,9.0,21.0,-999,-99.99,,,-99.99,,2013-02-19 14:52:00,
2013-02-19 10:02:00,62.0,-99.9,30.12,SW,224,11.0,17.0,-999,-99.99,,,-99.99,,2013-02-19 15:02:00,
2013-02-19 10:11:00,62.0,-99.9,30.12,SW,226,11.0,17.0,-999,-99.99,,,-99.99,,2013-02-19 15:11:00,
2013-02-19 10:22:00,62.0,-99.9,30.12,SW,219,11.0,21.0,-999,-99.99,,,-99.99,,2013-02-19 15:22:00,
2013-02-19 10:32:00,63.0,-99.9,30.11,SW,219,11.0,17.0,-999,-99.99,,,-99.99,,2013-02-19 15:32:00,
2013-02-19 10:42:00,64.0,-99.9,30.11,SW,226,16.0,22.0,-999,-99.99,,,-99.99,,2013-02-19 15:42:00,
2013-02-19 10:52:00,63.0,-99.9,30.10,SSW,212,13.0,26.0,-999,-99.99,,,-99.99,,2013-02-19 15:52:00,
2013-02-19 11:02:00,63.0,-99.9,30.09,SW,222,15.0,24.0,-999,-99.99,,,-99.99,,2013-02-19 16:02:00,
2013-02-19 11:12:00,64.0,-99.9,30.09,SSW,212,16.0,24.0,-999,-99.99,,,-99.99,,2013-02-19 16:12:00,
2013-02-19 11:22:00,64.0,-99.9,30.09,SSW,213,16.0,24.0,-999,-99.99,,,-99.99,,2013-02-19 16:22:00,
2013-02-19 11:32:00,64.0,-99.9,30.09,SW,217,14.0,25.0,-999,-99.99,,,-99.99,,2013-02-19 16:32:00,
2013-02-19 11:42:00,64.0,-99.9,30.09,SSW,211,18.0,26.0,-999,-99.99,,,-99.99,,2013-02-19 16:42:00,
2013-02-19 11:52:00,63.0,-99.9,30.09,SW,215,17.0,28.0,-999,-99.99,,,-99.99,,2013-02-19 16:52:00,
2013-02-19 12:01:00,63.0,-99.9,30.09,SW,223,16.0,25.0,-999,-99.99,,,-99.99,,2013-02-19 17:01:00,
2013-02-19 12:11:00,63.0,-99.9,30.09,SW,220,11.0,23.0,-999,-99.99,,,-99.99,,2013-02-19 17:11:00,
2013-02-19 12:21:00,64.0,-99.9,30.08,SW,216,15.0,23.0,-999,-99.99,,,-99.99,,2013-02-19 17:21:00,
2013-02-19 12:32:00,64.0,-99.9,30.07,SW,221,14.0,22.0,-999,-99.99,,,-99.99,,2013-02-19 17:32:00,
2013-02-19 12:42:00,63.0,-99.9,30.06,SW,215,15.0,24.0,-999,-99.99,,,-99.99,,2013-02-19 17:42:00,
2013-02-19 12:52:00,63.0,-99.9,30.06,SSW,209,19.0,26.0,-999,-99.99,,,-99.99,,2013-02-19 17:52:00,
2013-02-19 13:02:00,62.0,-99.9,30.04,SSW,210,16.0,26.0,-999,-99.99,,,-99.99,,2013-02-19 18:02:00,
2013-02-19 13:11:00,62.0,-99.9,30.05,SSW,212,17.0,26.0,-999,-99.99,,,-99.99,,2013-02-19 18:11:00,
2013-02-19 13:22:00,62.0,-99.9,30.04,SSW,212,16.0,27.0,-999,-99.99,,,-99.99,,2013-02-19 18:22:00,
2013-02-19 13:32:00,61.0,-99.9,30.04,SSW,213,14.0,23.0,-999,-99.99,,,-99.99,,2013-02-19 18:32:00,
2013-02-19 13:42:00,60.0,-99.9,30.04,SW,214,12.0,23.0,-999,-99.99,,,-99.99,,2013-02-19 18:42:00,
2013-02-19 13:52:00,59.0,-99.9,30.03,SW,214,14.0,22.0,-999,-99.99,,,-99.99,,2013-02-19 18:52:00,
2013-02-19 14:01:00,59.0,-99.9,30.02,SW,214,13.0,21.0,-999,-99.99,,,-99.99,,2013-02-19 19:01:00,
2013-02-19 14:11:00,58.0,-99.9,30.02,SSW,210,13.0,23.0,-999,-99.99,,,-99.99,,2013-02-19 19:11:00,
2013-02-19 14:22:00,58.0,-99.9,30.01,SW,219,12.0,20.0,-999,-99.99,,,-99.99,,2013-02-19 19:22:00,
2013-02-19 14:32:00,58.0,-99.9,30.00,SSW,209,11.0,14.0,-999,-99.99,,,-99.99,,2013-02-19 19:32:00,
2013-02-19 14:42:00,58.0,-99.9,30.00,SW,215,11.0,19.0,-999,-99.99,,,-99.99,,2013-02-19 19:42:00,
2013-02-19 14:52:00,58.0,-99.9,30.00,SW,217,13.0,17.0,-999,-99.99,,,-99.99,,2013-02-19 19:52:00,
2013-02-19 15:02:00,58.0,-99.9,29.99,SW,214,10.0,18.0,-999,-99.99,,,-99.99,,2013-02-19 20:02:00,
2013-02-19 15:12:00,59.0,-99.9,29.98,SW,215,14.0,18.0,-999,-99.99,,,-99.99,,2013-02-19 20:12:00,
2013-02-19 15:22:00,59.0,-99.9,29.98,SW,217,8.0,17.0,-999,-99.99,,,-99.99,,2013-02-19 20:22:00,
2013-02-19 15:32:00,59.0,-99.9,29.98,SW,223,11.0,15.0,-999,-99.99,,,-99.99,,2013-02-19 20:32:00,
2013-02-19 15:42:00,58.0,-99.9,29.98,SW,226,10.0,15.0,-999,-99.99,,,-99.99,,2013-02-19 20:42:00,
2013-02-19 15:52:00,58.0,-99.9,29.98,SW,223,9.0,18.0,-999,-99.99,,,-99.99,,2013-02-19 20:52:00,
2013-02-19 16:02:00,58.0,-99.9,29.98,SW,224,9.0,13.0,-999,-99.99,,,-99.99,,2013-02-19 21:02:00,
2013-02-19 16:11:00,58.0,-99.9,29.98,SW,224,9.0,14.0,-999,-99.99,,,-99.99,,2013-02-19 21:11:00,
2013-02-19 16:22:00,58.0,-99.9,29.98,SW,223,8.0,13.0,-999,-99.99,,,-99.99,,2013-02-19 21:22:00,
2013-02-19 16:32:00,58.0,-99.9,29.97,SW,215,7.0,14.0,-999,-99.99,,,-99.99,,2013-02-19 21:32:00,
2013-02-19 16:42:00,58.0,-99.9,29.97,SW,224,6.0,12.0,-999,-99.99,,,-99.99,,2013-02-19 21:42:00,
2013-02-19 16:52:00,58.0,-99.9,29.97,SW,236,4.0,9.0,-999,-99.99,,,-99.99,,2013-02-19 21:52:00,
2013-02-19 17:02:00,58.0,-99.9,29.97,West,259,5.0,9.0,-999,-99.99,,,-99.99,,2013-02-19 22:02:00,
2013-02-19 17:11:00,58.0,-99.9,29.97,WSW,256,7.0,10.0,-999,-99.99,,,-99.99,,2013-02-19 22:11:00,
2013-02-19 17:22:00,58.0,-99.9,29.97,WSW,256,7.0,10.0,-999,-99.99,,,-99.99,,2013-02-19 22:22:00,
2013-02-19 17:32:00,58.0,-99.9,29.97,WSW,256,7.0,10.0,-999,-99.99,,,-99.99,,2013-02-19 22:32:00,
2013-02-19 17:42:00,58.0,-99.9,29.97,WSW,256,7.0,10.0,-999,-99.99,,,-99.99,,2013-02-19 22:42:00,
2013-02-19 17:52:00,58.0,-99.9,29.98,WSW,257,7.0,10.0,-999,-99.99,,,-99.99,,2013-02-19 22:52:00,
2013-02-19 19:42:00,57.0,-99.9,30.00,WSW,255,6.0,10.0,-999,-99.99,,,-99.99,,2013-02-20 00:42:00,
2013-02-19 19:52:00,57.0,-99.9,30.00,WSW,254,6.0,9.0,-999,-99.99,,,-99.99,,2013-02-20 00:52:00,
2013-02-19 20:02:00,57.0,-99.9,30.01,West,265,7.0,11.0,-999,-99.99,,,-99.99,,2013-02-20 01:02:00,
2013-02-19 20:11:00,57.0,-99.9,30.01,West,266,9.0,13.0,-999,-99.99,,,-99.99,,2013-02-20 01:11:00,
2013-02-19 20:22:00,57.0,-99.9,30.01,West,271,9.0,12.0,-999,-99.99,,,-99.99,,2013-02-20 01:22:00,
2013-02-19 20:32:00,57.0,-99.9,30.01,WNW,288,5.0,9.0,-999,-99.99,,,-99.99,,2013-02-20 01:32:00,
2013-02-19 20:42:00,57.0,-99.9,30.01,West,271,5.0,10.0,-999,-99.99,,,-99.99,,2013-02-20 01:42:00,
2013-02-19 20:52:00,57.0,-99.9,30.02,West,278,9.0,12.0,-999,-99.99,,,-99.99,,2013-02-20 01:52:00,
2013-02-19 21:02:00,56.0,-99.9,30.02,West,277,7.0,10.0,-999,-99.99,,,-99.99,,2013-02-20 02:02:00,
2013-02-19 21:11:00,56.0,-99.9,30.01,West,268,5.0,9.0,-999,-99.99,,,-99.99,,2013-02-20 02:11:00,
2013-02-19 21:22:00,56.0,-99.9,30.02,West,273,6.0,11.0,-999,-99.99,,,-99.99,,2013-02-20 02:22:00,
2013-02-19 21:32:00,55.0,-99.9,30.02,West,267,4.0,10.0,-999,-99.99,,,-99.99,,2013-02-20 02:32:00,
2013-02-19 21:42:00,55.0,-99.9,30.02,West,265,5.0,9.0,-999,-99.99,,,-99.99,,2013-02-20 02:42:00,
2013-02-19 21:52:00,55.0,-99.9,30.02,West,264,3.0,9.0,-999,-99.99,,,-99.99,,2013-02-20 02:52:00,
2013-02-19 22:02:00,55.0,-99.9,30.02,WSW,252,5.0,6.0,-999,-99.99,,,-99.99,,2013-02-20 03:02:00,
2013-02-19 22:12:00,54.0,-99.9,30.02,WSW,249,3.0,6.0,-999,-99.99,,,-99.99,,2013-02-20 03:12:00,
2013-02-19 22:22:00,54.0,-99.9,30.02,SW,234,3.0,5.0,-999,-99.99,,,-99.99,,2013-02-20 03:22:00,
2013-02-19 22:32:00,53.0,-99.9,30.03,SW,232,3.0,4.0,-999,-99.99,,,-99.99,,2013-02-20 03:32:00,
2013-02-19 22:42:00,53.0,-99.9,30.03,WSW,249,3.0,5.0,-999,-99.99,,,-99.99,,2013-02-20 03:42:00,
2013-02-19 22:52:00,53.0,-99.9,30.03,SW,229,4.0,6.0,-999,-99.99,,,-99.99,,2013-02-20 03:52:00,
2013-02-19 23:02:00,53.0,-99.9,30.03,SW,233,3.0,5.0,-999,-99.99,,,-99.99,,2013-02-20 04:02:00,
2013-02-19 23:11:00,53.0,-99.9,30.03,SW,232,3.0,5.0,-999,-99.99,,,-99.99,,2013-02-20 04:11:00,
2013-02-19 23:22:00,53.0,-99.9,30.03,SW,235,4.0,6.0,-999,-99.99,,,-99.99,,2013-02-20 04:22:00,
2013-02-19 23:32:00,52.0,-99.9,30.02,WSW,252,4.0,5.0,-999,-99.99,,,-99.99,,2013-02-20 04:32:00,
2013-02-19 23:42:00,52.0,-99.9,30.03,WSW,253,5.0,8.0,-999,-99.99,,,-99.99,,2013-02-20 04:42:00,
2013-02-19 23:52:00,52.0,-99.9,30.03,WSW,253,6.0,10.0,-999,-99.99,,,-99.99,,2013-02-20 04:52:00,